Погода в Болховском

Россия / Липецкая область     52°24′55″N   38°51′40″E
темп.,
°C
ветер,
м/с
пор.,
м/с
влажн.,
%
обл.,
%
осадки,
мм/ч
давл.,
гПа
погр.,
м
15 апреля, чт
чт1500:00+13юв385875 0.0 1015134
03:00+12вюв3662100 0.0 1015112
06:00+11вюв2265100 0.0 101439
09:00+14юв4656100 0.0 1014369
12:00+17ююв5751100 0.0 10141213
15:00+17юв7945100 0.2 10132069
18:00+15юв4660100 0.5 1014829
21:00+12вюв357042 0.6 1014105
16 апреля, пт
пт1600:00+12вюв2371100 0.0 101451
03:00+11вюв2373100 0.0 101546
06:00+11юв2476100 0.0 101686
09:00+13ююв346798 0.1 1017516
12:00+15ююв5755100 0.4 10171508
15:00+17ю583785 0.8 10172438
18:00+16ю35374 0.0 1016576
21:00+12з225717 0.0 101725
17 апреля, сб
сб1700:00+11с2261100 0.0 101826
03:00+9зюз3468100 0.0 101870
06:00+9сз3474100 0.0 101794
09:00+9з4482100 0.6 1018268
12:00+8юз3492100 4.3 1017341
15:00+7зюз4693100 10.3 1018300
18:00+8з1188100 0.6 1018288
21:00+7ююз1293100 0.7 1019113
18 апреля, вс
вс1800:00+7з2495100 0.5 1019236
03:00+7зюз2495100 1.4 1019246
06:00+6юз4791100 1.6 1019488
09:00+7з368288 3.3 1019379
12:00+10юв226496 0.1 10201033
15:00+12в4459100 1.0 10191413
18:00+9в128059 1.9 1020218
21:00+8св3887100 2.6 1020533
19 апреля, пн
пн1900:00+8всв3692100 5.0 1021517
03:00+7всв589298 7.0 1021489
06:00+6св5994100 0.2 1021477
09:00+6св61091100 0.4 1022624
12:00+8всв588297 0.2 1022712
15:00+10всв787381 0.4 10221060
18:00+7всв6988100 0.2 1023787
21:00+5всв6138981 0.2 1023756